Preview of NWS' New Version of Forecast
This preview is not operational and should not be used for support decisions.

Regional Weather Roundup (RWR)

Issued by National Weather Service (NWS)

                            
000
ASUS43 KLSX 210257
RWRMO 

WEATHER SUMMARY FOR MISSOURI
NATIONAL WEATHER SERVICE SPRINGFIELD MO
900 PM CST WED FEB 20 2019

NOTE: "FAIR" INDICATES FEW OR NO CLOUDS BELOW 12,000 FEET WITH NO
       SIGNIFICANT WEATHER AND/OR OBSTRUCTIONS TO VISIBILITY.
       CURRENT SKY AND/OR WEATHER CONDITIONS ARE NOT AVAILABLE FOR
       CHILLICOTHE AND FARMINGTON.

MOZ001>031-035>038-043-044-053-054-210400-
...NORTHERN AND WESTERN MISSOURI...
  
CITY           SKY/WX    TMP DP  RH WIND       PRES   REMARKS
KANSAS CTY INT CLEAR     30  22  72 SW7       29.94R WCI  23          
LEE'S SUMMIT   CLOUDY    31  25  78 SW10      29.96R WCI  22          
ST JOSEPH      CLEAR     25  19  78 SW8       29.95R WCI  16          
CHILLICOTHE      N/A     27  22  81 CALM      29.95R                  
     
$$
MOZ066>068-077>081-088>096-101>105-210400-
...SOUTHWEST MISSOURI...
  
CITY           SKY/WX    TMP DP  RH WIND       PRES   REMARKS
SPRINGFIELD    PTCLDY    36  30  79 CALM      30.00R                  
JOPLIN         CLOUDY    34  31  88 N3        30.02R                  
BRANSON        PTCLDY    37  32  81 CALM      30.01R                  
               
$$
MOZ032>034-039>042-045>050-055>058-069>072-210400-
...CENTRAL MISSOURI...  
  
CITY           SKY/WX    TMP DP  RH WIND       PRES   REMARKS
COLUMBIA       NOT AVBL                                               
JEFFERSON CITY PTCLDY    35  27  72 S3        30.00R                  
ROLLA          MOCLDY    34  27  75 SW9       30.00R WCI  27          
SEDALIA        PTCLDY    32  28  85 SW9       29.98R WCI  24          
WARRENSBURG    CLOUDY    32  28  86 S8        29.97R WCI  25          
               
$$
MOZ051-052-059>065-210400-
...EAST CENTRAL MISSOURI...
  
CITY           SKY/WX    TMP DP  RH WIND       PRES   REMARKS
ST LOUIS INTL  CLOUDY    36  29  75 SW8       30.01R WCI  30          
                   
$$
MOZ072>076-082>087-097>100-106>115-210400-
...SOUTH CENTRAL AND SOUTHEAST MISSOURI...
  
CITY           SKY/WX    TMP DP  RH WIND       PRES   REMARKS
CAPE GIRARDEAU FAIR      39  35  86 CALM      30.00R                  
POPLAR BLUFF   FAIR      39  37  92 W3        30.01R                  
WEST PLAINS    PTCLDY    36  31  82 NW6       30.01R                  
                                       
$$